Tracking 19149 objects as of 22-Apr-2018
HD Live streaming from Space Station
objects crossing your sky now

FENGYUN 1C DEB

Track FENGYUN 1C DEB now!
10-day predictions


NORAD ID: 37081
Int'l Code: 1999-025EFR
Perigee: 734.6 km
Apogee: 1,291.1 km
Inclination: 98.7 °
Period: 105.2 minutes
Semi major axis: 7383 km
RCS: 0.0002 m2 (small)
Launch date: May 10, 1999
Source: People's Republic of China (PRC)
Launch site: Taiyaun Space Center, China (TSC)

Note: This is SATELLITE DEBRIS
aabbcc
Your satellite tracking list
Your tracking list is empty




NASA's NSSDC Master Catalog

Two Line Element Set (TLE):
1 37081U 99025EFR 18102.14218725  .00001642  00000-0  11999-2 0  9990
2 37081  98.7459  73.3944 0376857 341.4785  17.2949 13.68300636473474
Source of the keplerian elements: AFSPC